Snowfall_Accumulation
0.0 0.0 0.0 0.0 0.0 0.0 0.0 0.0 0.0 0.0 0.0 0.0 0.0 0.0 0.0 0.0 0.0 0.0 0.0 0.0 0.0 0.0 0.0 0.0 0.0 0.0 0.0 0.0 0.0 0.0 0.0 0.0 0.0 0.0 0.0 0.0 0.0 0.0 0.0 0.0 0.0 0.0 0.0
0.0 0.0 0.0 0.0 0.0 0.0 0.0 0.0 0.0 0.0 0.0 0.0 0.0 0.0 0.0 0.0 0.0 0.0 0.0 0.0 0.0 0.0 0.0 0.0 0.0 0.0 0.0 0.0 0.0 0.0 0.0 0.0 0.0 0.0 0.0 0.0 0.0 0.0 0.0 0.0 0.0 0.0 0.0
0.0 0.0 0.0 0.0 0.0 0.0 0.0 0.0 0.0 0.0 0.0 0.0 0.0 0.0 0.0 0.0 0.0 0.0 0.0 0.0 0.0 0.0 0.0 0.0 0.0 0.0 0.0 0.0 0.0 0.0 0.0 0.0 0.0 0.0 0.0 0.0 0.0 0.0 0.0 0.0 0.0 0.0 0.0
0.0 0.0 0.0 0.0 0.0 0.0 0.0 0.0 0.0 0.0 0.0 0.0 0.0 0.0 0.0 0.0 0.0 0.0 0.0 0.0 0.0 0.0 0.0 0.0 0.0 0.0 0.0 0.0 0.0 0.0 0.0 0.0 0.0 0.0 0.0 0.1 0.1 0.2 0.0 0.0 0.0 0.0 0.0
0.0 0.0 0.0 0.0 0.0 0.0 0.0 0.0 0.0 0.0 0.0 0.0 0.0 0.0 0.0 0.0 0.0 0.0 0.0 0.0 0.0 0.0 0.0 0.0 0.0 nan nan nan 0.0 0.0 0.0 0.0 0.0 0.0 0.1 0.2 0.3 0.3 0.2 0.2 0.0 0.1 0.1
0.0 0.0 0.0 0.0 0.0 0.0 0.0 0.0 0.0 0.0 0.0 0.0 0.0 0.0 0.0 0.0 nan nan 0.0 0.0 0.0 0.0 0.0 0.0 0.0 0.0 0.0 nan nan nan nan 0.0 0.0 0.0 0.2 0.2 0.0 0.2 0.2 0.2 0.3 0.4 0.8
0.0 0.0 0.0 0.0 0.0 0.0 0.0 0.0 0.0 0.0 0.0 0.0 0.0 0.0 0.0 0.0 nan nan nan 0.0 0.0 0.0 0.0 0.0 0.0 0.0 nan 0.0 nan nan nan nan 0.0 0.0 0.0 0.1 0.0 0.0 0.0 0.0 0.0 0.2 0.3
0.0 0.0 0.0 0.0 0.0 0.0 0.0 0.0 0.0 0.0 0.1 0.0 0.0 0.0 0.0 0.0 nan nan nan 0.0 0.0 0.0 0.0 0.0 0.0 0.0 0.0 0.0 0.0 0.0 0.0 0.0 0.0 0.0 0.0 0.0 0.0 0.0 0.0 0.0 0.0 0.0 0.7
0.0 0.0 0.0 0.0 0.0 0.0 0.0 0.0 0.0 0.1 0.1 0.1 0.0 0.0 0.0 0.0 nan nan 0.0 0.0 0.0 0.0 0.0 0.0 0.0 0.0 nan nan 0.0 0.0 0.0 0.0 nan nan nan nan nan nan nan 0.4 2.3 2.4 4.6
0.0 0.0 0.0 0.0 0.0 0.0 0.0 0.0 0.0 0.0 0.0 0.5 0.1 0.1 nan 0.1 nan nan nan 0.3 0.1 0.5 0.1 0.0 nan 0.0 nan nan 0.0 0.1 0.1 0.1 0.1 0.2 0.1 0.1 nan nan nan 0.0 0.3 0.6 3.3
0.0 0.0 0.0 0.0 0.0 0.0 0.0 0.1 0.1 0.1 0.1 0.1 0.1 0.2 0.3 0.1 0.1 nan nan 0.2 0.6 0.7 0.7 0.7 0.5 nan nan nan nan 0.0 0.1 0.2 1.5 0.6 0.6 1.2 0.5 0.3 0.5 0.3 0.1 0.3 1.4
0.0 0.0 0.0 0.0 0.0 0.0 0.1 0.1 0.1 0.1 0.2 0.2 0.1 0.6 0.9 0.1 nan nan nan nan nan 0.5 0.7 1.3 1.3 nan nan nan 0.5 nan nan 0.3 1.6 2.0 2.2 3.1 2.7 2.3 1.1 0.8 0.3 0.5 1.0
0.0 0.0 0.0 0.0 0.1 0.1 0.1 0.1 0.7 0.1 0.6 0.2 0.9 1.0 1.0 0.7 0.6 nan nan nan nan 1.2 1.2 1.4 nan nan nan 0.0 nan nan 1.1 2.7 4.2 6.7 6.3 5.6 4.0 2.7 2.1 2.5 1.4 0.9 1.3
0.0 0.0 0.0 0.1 0.1 0.1 0.7 0.6 0.6 0.7 0.8 0.7 0.9 1.1 0.9 0.9 0.9 0.7 0.7 0.6 nan 1.0 0.2 1.3 1.2 1.2 0.6 1.0 1.8 2.3 2.1 2.4 3.0 4.2 4.8 5.0 4.5 4.7 4.0 2.6 3.3 2.7 3.7
0.0 0.0 0.0 0.1 0.1 0.1 0.2 0.4 0.4 0.2 0.3 0.5 0.7 0.8 2.2 3.3 2.4 1.0 1.1 1.5 1.6 1.0 1.8 2.3 3.5 3.8 3.8 3.0 3.0 3.1 2.5 2.5 3.3 3.9 4.3 4.4 4.2 3.3 3.7 1.9 1.9 2.0 3.3
0.0 0.1 0.2 0.3 0.4 0.4 0.5 1.1 nan nan nan nan nan 0.6 1.8 nan nan nan nan nan nan nan 1.8 2.9 5.5 5.2 3.4 2.6 2.8 2.9 2.3 1.7 1.5 1.5 2.0 1.8 2.2 2.4 2.1 1.9 1.3 1.5 2.1
0.0 0.0 0.2 0.2 0.3 0.5 0.9 1.0 2.0 2.0 nan nan nan nan nan nan nan nan nan nan nan nan 2.4 2.3 3.8 4.0 2.0 1.1 1.0 0.9 2.2 1.6 0.2 1.1 1.4 1.6 1.5 1.6 2.1 1.8 1.6 1.3 2.3
0.0 0.0 0.4 0.4 0.5 0.8 1.2 2.2 2.4 3.4 7.0 7.6 nan nan nan nan nan nan nan nan 2.9 nan 0.9 1.2 1.7 1.3 0.8 0.8 0.6 0.8 1.1 1.6 1.6 1.1 1.5 2.1 2.7 1.9 2.3 1.8 1.4 1.9 1.4
0.9 1.1 0.9 1.1 1.2 1.5 1.8 2.4 2.7 3.0 3.5 4.4 3.6 2.2 1.2 nan nan nan nan 1.1 1.6 1.1 0.8 0.7 1.0 0.8 0.8 0.6 1.4 1.7 2.7 3.0 3.0 4.6 2.6 3.3 6.8 1.9 2.8 1.9 1.9 1.6 1.8
1.4 0.1 1.0 1.6 1.9 2.0 2.0 2.3 2.7 2.7 2.6 2.4 2.4 2.3 1.7 1.2 4.6 7.1 3.1 4.2 2.5 1.1 1.0 0.8 0.8 0.7 0.9 0.9 2.0 4.3 4.2 4.8 3.5 2.9 5.0 7.3 6.2 2.3 2.9 2.6 3.2 3.5 1.4
1.8 1.8 0.1 1.4 1.6 1.6 1.9 2.3 1.9 2.6 3.1 2.5 3.2 3.4 0.2 1.0 2.3 1.8 1.6 2.0 1.2 0.9 1.5 0.7 1.0 1.2 1.1 1.3 1.0 2.3 1.3 6.1 2.6 3.0 2.4 2.7 14.8 5.0 2.1 2.1 2.8 2.2 1.8
1.2 1.3 1.2 1.7 1.5 2.6 2.2 1.7 2.1 2.3 2.3 2.6 2.9 2.8 2.2 2.6 1.7 1.7 1.6 2.6 4.1 1.0 0.7 1.0 0.9 0.9 0.9 1.0 1.3 5.5 4.4 6.7 5.4 3.9 3.6 3.7 3.1 3.2 3.0 3.0 4.0 4.0 2.7
0.9 1.3 1.0 1.1 1.3 3.2 2.4 2.2 2.5 3.1 3.1 3.6 2.8 3.8 4.6 4.2 3.8 2.5 2.9 4.4 1.9 2.2 1.7 1.3 2.8 2.3 1.6 2.5 2.2 1.6 3.3 3.3 2.9 3.5 5.1 5.9 3.7 3.9 5.4 4.0 3.4 4.7 5.0
0.9 1.6 1.7 2.4 2.6 1.9 3.4 5.1 3.2 5.1 3.2 4.6 7.9 5.9 5.2 5.4 9.6 8.0 7.6 8.7 5.7 7.2 6.6 6.7 2.7 2.3 2.2 6.2 3.9 2.8 1.9 3.7 2.7 3.4 3.1 5.3 4.4 3.5 4.9 4.1 3.8 4.5 5.4
1.3 3.8 4.0 2.9 3.6 6.7 7.9 4.8 6.0 6.8 7.0 8.2 10.4 7.8 3.5 6.6 5.4 11.1 8.3 6.4 5.8 9.0 5.1 6.5 5.2 3.6 3.9 3.9 3.7 1.9 2.5 3.3 3.7 3.4 4.1 2.6 4.0 4.1 4.6 4.1 5.3 3.8 4.3
1.0 1.4 2.4 2.7 3.8 6.0 7.2 10.4 10.4 8.7 8.8 9.5 9.4 10.2 7.4 5.8 5.1 9.9 7.5 7.0 6.5 6.4 5.7 6.1 5.2 4.4 4.3 4.0 2.5 4.8 4.7 4.0 6.0 3.6 5.9 3.5 5.5 5.6 5.3 4.2 3.5 5.1 3.0
Water_Equivalent
0.00 0.00 0.00 0.00 0.00 0.00 0.00 0.00 0.00 0.00 0.00 0.00 0.00 0.00 0.00 0.00 0.00 0.00 0.00 0.00 0.00 0.00 0.00 0.00 0.00 0.00 0.00 0.00 0.00 0.00 0.00 0.00 0.00 0.00 0.00 0.00 0.00 0.00 0.00 0.00 0.00 0.00 0.00
0.00 0.00 0.00 0.00 0.00 0.00 0.00 0.00 0.00 0.00 0.00 0.00 0.00 0.00 0.00 0.00 0.00 0.00 0.00 0.00 0.00 0.00 0.00 0.00 0.00 0.00 0.00 0.00 0.00 0.00 0.00 0.00 0.00 0.00 0.00 0.00 0.00 0.00 0.00 0.00 0.00 0.00 0.00
0.00 0.00 0.00 0.00 0.00 0.00 0.00 0.00 0.00 0.00 0.00 0.00 0.00 0.00 0.00 0.00 0.00 0.00 0.00 0.00 0.00 0.00 0.00 0.00 0.00 0.00 0.00 0.00 0.00 0.00 0.00 0.00 0.00 0.00 0.00 0.00 0.00 0.00 0.00 0.00 0.00 0.00 0.00
0.00 0.00 0.00 0.00 0.00 0.00 0.00 0.00 0.00 0.00 0.00 0.00 0.00 0.00 0.00 0.00 0.00 0.00 0.00 0.00 0.00 0.00 0.00 0.00 0.00 0.00 0.00 0.00 0.00 0.00 0.00 0.00 0.00 0.00 0.00 0.02 0.02 0.05 0.01 0.00 0.01 0.00 0.00
0.00 0.00 0.00 0.00 0.00 0.00 0.00 0.00 0.00 0.00 0.00 0.00 0.00 0.00 0.00 0.00 0.00 0.00 0.00 0.00 0.00 0.00 0.00 0.00 0.00 nan nan nan 0.00 0.00 0.00 0.00 0.01 0.00 0.03 0.07 0.09 0.09 0.05 0.05 0.01 0.04 0.04
0.00 0.00 0.00 0.00 0.00 0.00 0.00 0.00 0.00 0.00 0.01 0.01 0.00 0.00 0.00 0.00 nan nan 0.00 0.00 0.00 0.00 0.00 0.00 0.00 0.00 0.00 nan nan nan nan 0.00 0.00 0.02 0.06 0.05 0.00 0.08 0.05 0.07 0.09 0.13 0.25
0.00 0.00 0.00 0.00 0.00 0.00 0.01 0.00 0.01 0.02 0.01 0.01 0.01 0.01 0.01 0.00 nan nan nan 0.01 0.01 0.00 0.00 0.00 0.00 0.00 nan 0.00 nan nan nan nan 0.00 0.00 0.00 0.02 0.00 0.00 0.00 0.01 0.01 0.07 0.10
0.00 0.00 0.00 0.00 0.00 0.00 0.00 0.00 0.01 0.01 0.05 0.02 0.02 0.01 0.00 0.00 nan nan nan 0.00 0.00 0.00 0.01 0.01 0.00 0.01 0.01 0.00 0.00 0.01 0.01 0.00 0.00 0.00 0.00 0.00 0.00 0.00 0.00 0.00 0.00 0.01 0.24
0.00 0.00 0.00 0.00 0.00 0.00 0.00 0.00 0.01 0.02 0.02 0.02 0.02 0.02 0.02 0.02 nan nan 0.00 0.01 0.00 0.01 0.00 0.01 0.00 0.01 nan nan 0.00 0.01 0.02 0.02 nan nan nan nan nan nan nan 0.13 0.76 0.80 1.33
0.00 0.00 0.00 0.00 0.00 0.00 0.00 0.01 0.01 0.01 0.02 0.20 0.04 0.04 nan 0.02 nan nan nan 0.10 0.02 0.17 0.02 0.01 nan 0.00 nan nan 0.00 0.02 0.03 0.03 0.04 0.06 0.04 0.02 nan nan nan 0.00 0.10 0.16 0.90
0.00 0.00 0.00 0.00 0.00 0.00 0.02 0.02 0.02 0.03 0.03 0.05 0.05 0.06 0.10 0.04 0.02 nan nan 0.09 0.21 0.24 0.25 0.27 0.19 nan nan nan nan 0.01 0.02 0.07 0.57 0.20 0.20 0.38 0.18 0.09 0.16 0.11 0.04 0.12 0.47
0.00 0.00 0.00 0.00 0.00 0.00 0.02 0.04 0.04 0.04 0.06 0.08 0.05 0.23 0.33 0.04 nan nan nan nan nan 0.19 0.22 0.48 0.50 nan nan nan 0.17 nan nan 0.10 0.56 0.62 0.69 0.96 0.84 0.72 0.38 0.29 0.11 0.18 0.35
0.00 0.00 0.00 0.01 0.02 0.04 0.04 0.05 0.26 0.03 0.21 0.07 0.27 0.33 0.32 0.26 0.23 nan nan nan nan 0.45 0.43 0.54 nan nan nan 0.00 nan nan 0.35 0.90 1.43 2.21 2.07 1.80 1.35 0.90 0.73 0.86 0.47 0.30 0.41
0.00 0.00 0.01 0.02 0.05 0.05 0.25 0.22 0.19 0.22 0.23 0.21 0.26 0.33 0.30 0.30 0.30 0.26 0.26 0.22 nan 0.36 0.08 0.45 0.40 0.42 0.20 0.35 0.63 0.77 0.74 0.83 1.00 1.33 1.48 1.51 1.38 1.33 1.18 0.80 0.98 0.84 0.98
0.00 0.00 0.00 0.05 0.02 0.05 0.07 0.16 0.16 0.06 0.12 0.18 0.23 0.27 0.70 1.02 0.75 0.38 0.39 0.52 0.60 0.35 0.63 0.84 1.14 1.22 1.18 0.97 0.97 0.99 0.82 0.83 1.02 1.22 1.27 1.21 1.14 0.94 0.96 0.58 0.56 0.55 0.77
0.00 0.04 0.08 0.12 0.14 0.13 0.16 0.37 nan nan nan nan nan 0.20 0.64 nan nan nan nan nan nan nan 0.61 0.95 1.67 1.58 1.01 0.75 0.80 0.75 0.63 0.49 0.45 0.45 0.57 0.47 0.51 0.56 0.48 0.46 0.36 0.40 0.49
0.00 0.00 0.07 0.08 0.12 0.17 0.29 0.30 0.48 0.61 nan nan nan nan nan nan nan nan nan nan nan nan 0.76 0.68 1.12 1.21 0.62 0.33 0.27 0.26 0.49 0.42 0.06 0.33 0.38 0.42 0.38 0.36 0.51 0.41 0.37 0.31 0.50
0.01 0.00 0.14 0.17 0.20 0.27 0.42 0.70 0.78 1.00 1.72 1.90 nan nan nan nan nan nan nan nan 0.79 nan 0.28 0.35 0.52 0.41 0.24 0.20 0.16 0.18 0.24 0.40 0.40 0.29 0.41 0.60 0.74 0.47 0.55 0.40 0.33 0.43 0.31
0.26 0.37 0.31 0.39 0.44 0.56 0.65 0.77 0.84 0.87 1.01 1.09 0.94 0.58 0.40 nan nan nan nan 0.34 0.48 0.33 0.25 0.22 0.30 0.23 0.25 0.18 0.40 0.51 0.81 0.87 0.91 1.42 0.72 0.96 2.03 0.49 0.65 0.45 0.46 0.43 0.49
0.50 0.03 0.33 0.54 0.62 0.64 0.61 0.65 0.73 0.73 0.70 0.63 0.56 0.56 0.46 0.34 1.28 2.12 0.92 1.31 0.76 0.31 0.29 0.22 0.23 0.21 0.26 0.25 0.60 1.31 1.29 1.47 0.98 0.77 1.40 2.21 1.91 0.62 0.67 0.56 0.75 0.80 0.31
0.60 0.56 0.04 0.41 0.46 0.45 0.51 0.60 0.53 0.70 0.79 0.61 0.82 0.99 0.07 0.29 0.63 0.52 0.44 0.58 0.36 0.28 0.46 0.21 0.29 0.37 0.33 0.39 0.29 0.66 0.34 1.91 0.64 0.73 0.59 0.68 4.60 1.16 0.51 0.53 0.67 0.51 0.40
0.36 0.36 0.34 0.41 0.39 0.61 0.51 0.44 0.54 0.58 0.59 0.62 0.70 0.67 0.73 0.74 0.48 0.49 0.46 0.78 1.31 0.30 0.21 0.29 0.27 0.25 0.24 0.27 0.38 1.67 1.26 1.91 1.50 1.04 0.86 0.84 0.70 0.75 0.66 0.69 0.85 0.87 0.61
0.26 0.38 0.28 0.28 0.32 1.03 0.57 0.48 0.56 0.72 0.72 0.86 0.64 0.82 1.03 1.11 1.03 0.64 0.80 1.35 0.57 0.65 0.48 0.36 0.81 0.58 0.46 0.70 0.62 0.45 0.87 0.81 0.76 0.96 1.30 1.39 0.78 0.88 1.27 0.90 0.73 0.94 0.93
0.31 0.48 0.43 0.64 0.70 0.45 0.90 1.38 0.77 1.62 0.72 1.11 2.11 1.57 1.35 1.41 2.78 2.13 2.20 2.63 1.58 2.11 1.96 1.94 0.69 0.53 0.53 1.78 1.04 0.74 0.48 0.94 0.71 0.82 0.81 1.23 0.98 0.93 1.08 0.89 0.81 0.86 1.02
0.44 1.18 1.29 0.77 0.93 1.89 2.31 1.34 1.60 1.87 1.82 2.24 2.78 2.03 0.80 1.65 1.30 3.18 2.30 1.66 1.44 2.40 1.25 1.65 1.31 0.87 0.91 0.83 0.77 0.39 0.62 1.07 0.96 1.14 0.92 0.57 0.87 0.84 0.93 0.82 1.10 0.83 0.83
0.34 0.44 0.67 0.78 1.06 1.82 2.07 3.12 3.09 2.54 2.52 2.76 2.74 2.85 1.90 1.36 1.21 2.63 1.86 1.72 1.49 1.45 1.31 1.38 1.18 0.97 0.93 0.88 0.51 1.53 1.56 1.33 1.35 1.19 1.29 0.75 1.17 1.17 1.11 0.86 0.71 1.04 0.60
SL_Ratio
nan nan nan nan nan nan nan nan nan nan nan nan nan nan nan nan nan nan nan nan nan nan nan nan nan nan nan nan nan nan nan nan nan nan nan nan nan nan nan nan nan nan nan
nan nan nan nan nan nan nan nan nan nan nan nan nan nan nan nan nan nan nan nan nan nan nan nan nan nan nan nan nan nan nan nan nan nan nan nan nan nan nan nan nan nan nan
nan nan nan nan nan nan nan nan nan nan nan nan nan nan nan nan nan nan nan nan nan nan nan nan nan nan nan nan nan nan nan nan nan nan nan nan nan nan nan nan nan nan nan
nan nan nan nan nan nan nan nan nan nan nan nan nan nan nan nan nan nan nan nan nan nan nan nan nan nan nan nan nan nan nan nan nan nan nan 3.2 3.1 3.2 3.0 3.3 3.2 nan nan
nan nan nan nan nan nan nan nan nan nan nan nan nan nan nan nan nan nan nan nan nan nan nan nan nan nan nan nan nan nan nan 3.3 2.4 5.0 2.9 2.9 3.2 3.4 3.3 3.0 2.7 2.6 2.6
nan nan nan nan nan nan nan nan nan 2.3 2.6 2.3 2.3 2.9 nan nan nan nan nan nan nan nan nan nan nan nan nan nan nan nan nan nan nan 2.9 3.0 3.3 nan 3.0 3.1 3.0 2.9 3.1 3.1
nan nan nan nan nan nan 2.2 nan 2.4 2.5 2.8 2.5 2.6 2.6 2.5 2.0 nan nan nan 2.6 2.6 0.0 2.5 nan nan nan nan nan nan nan nan nan nan nan nan 3.3 3.3 nan nan 3.3 2.9 3.0 3.1
nan nan nan nan nan nan 3.0 2.7 2.5 2.5 2.5 2.7 2.6 2.7 2.5 nan nan nan nan nan 0.0 2.7 2.7 2.7 nan 2.7 2.9 2.7 2.7 2.7 3.1 3.3 3.0 0.0 nan nan nan nan nan nan nan 3.2 2.8
nan nan nan nan nan nan 0.0 nan 3.0 2.6 2.7 2.6 2.7 2.5 2.5 2.7 nan nan 2.2 2.9 3.0 2.8 5.0 2.8 3.3 3.1 nan nan 2.7 2.9 2.7 2.9 nan nan nan nan nan nan nan 3.0 3.0 3.0 3.5
nan nan nan nan nan nan 2.2 2.9 2.8 2.7 2.7 2.6 2.7 2.6 nan 2.7 nan nan nan 2.8 3.1 2.8 3.1 2.9 nan 2.5 nan nan 3.6 3.2 3.3 3.3 3.0 2.7 2.8 2.7 nan nan nan nan 3.1 3.3 3.7
nan nan nan nan nan nan 2.7 2.6 2.7 2.8 2.8 2.8 2.8 2.6 2.5 2.6 2.7 nan nan 2.7 2.7 2.8 2.8 2.8 2.7 nan nan nan nan 3.2 3.2 3.0 2.7 2.9 3.0 3.1 3.1 3.1 3.0 3.0 3.1 3.0 3.0
nan nan nan nan 2.7 3.0 2.8 2.8 2.9 2.9 2.8 2.9 2.9 2.6 2.5 2.6 nan nan nan nan nan 2.7 2.9 2.7 2.6 nan nan nan 2.9 nan nan 2.9 3.0 3.2 3.2 3.2 3.2 3.1 3.0 2.9 3.0 2.9 2.9
nan nan 2.7 2.3 2.6 2.5 3.0 2.9 2.9 3.0 3.0 3.3 3.1 3.1 3.0 2.8 2.8 nan nan nan nan 2.7 2.7 2.6 nan nan nan nan nan nan 3.0 3.0 3.0 3.0 3.0 3.1 3.0 3.0 2.9 3.0 3.0 3.1 3.1
nan nan 2.8 2.7 2.7 2.8 2.7 2.8 2.9 3.0 3.4 3.3 3.3 3.2 3.1 3.1 3.0 2.8 2.8 2.8 nan 2.9 2.9 2.9 3.0 2.9 3.0 2.9 2.9 3.0 2.9 2.9 3.0 3.1 3.2 3.3 3.3 3.5 3.4 3.2 3.4 3.2 3.7
nan nan 2.0 2.7 2.8 2.8 2.8 2.8 2.8 2.8 2.8 3.0 3.1 3.0 3.1 3.3 3.2 2.6 2.7 2.8 2.7 2.8 2.8 2.8 3.1 3.1 3.2 3.1 3.1 3.2 3.1 3.1 3.2 3.2 3.4 3.6 3.7 3.5 3.9 3.3 3.4 3.6 4.3
nan 2.7 2.7 2.8 2.8 2.9 3.1 3.1 nan nan nan nan nan 2.8 2.8 nan nan nan nan nan nan nan 3.0 3.1 3.3 3.3 3.4 3.4 3.5 3.9 3.6 3.4 3.4 3.3 3.4 3.8 4.3 4.3 4.4 4.2 3.7 3.8 4.4
nan nan 2.6 2.6 2.8 3.0 3.0 3.3 4.2 3.3 nan nan nan nan nan nan nan nan nan nan nan nan 3.1 3.3 3.4 3.3 3.2 3.5 3.7 3.6 4.4 3.8 3.7 3.4 3.6 3.7 4.0 4.4 4.2 4.4 4.2 4.2 4.6
3.1 nan 2.6 2.7 2.7 2.9 2.9 3.1 3.1 3.4 4.0 4.0 nan nan nan nan nan nan nan nan 3.6 nan 3.2 3.2 3.3 3.2 3.4 3.8 3.8 4.2 4.4 3.9 4.0 3.8 3.6 3.5 3.6 4.0 4.2 4.5 4.3 4.4 4.5
3.4 3.0 2.7 2.7 2.7 2.7 2.8 3.1 3.2 3.4 3.5 4.1 3.9 3.8 3.1 nan nan nan nan 3.1 3.4 3.3 3.3 3.3 3.2 3.3 3.4 3.4 3.3 3.3 3.3 3.4 3.3 3.3 3.6 3.5 3.4 3.9 4.3 4.1 4.1 3.7 3.6
2.7 3.1 3.0 3.1 3.0 3.2 3.2 3.6 3.7 3.7 3.8 3.9 4.2 4.2 3.7 3.4 3.6 3.3 3.3 3.2 3.3 3.4 3.4 3.4 3.4 3.4 3.4 3.4 3.3 3.3 3.2 3.3 3.6 3.7 3.6 3.3 3.2 3.6 4.4 4.5 4.3 4.4 4.5
2.9 3.2 3.0 3.5 3.5 3.6 3.6 3.8 3.7 3.7 3.9 4.1 3.9 3.4 3.0 3.5 3.7 3.5 3.5 3.4 3.4 3.4 3.3 3.4 3.3 3.3 3.3 3.2 3.4 3.4 4.0 3.2 4.1 4.1 4.0 4.0 3.2 4.3 4.1 4.0 4.1 4.4 4.5
3.5 3.5 3.6 4.2 3.8 4.3 4.2 3.9 3.8 3.9 4.0 4.3 4.2 4.2 3.0 3.4 3.5 3.6 3.4 3.3 3.1 3.3 3.4 3.3 3.5 3.5 3.5 3.5 3.5 3.3 3.5 3.5 3.6 3.8 4.2 4.4 4.5 4.2 4.5 4.4 4.7 4.6 4.5
3.3 3.5 3.6 3.9 4.1 3.1 4.1 4.6 4.5 4.3 4.3 4.1 4.3 4.7 4.5 3.8 3.7 3.9 3.6 3.3 3.4 3.3 3.5 3.5 3.5 4.0 3.5 3.6 3.5 3.6 3.8 4.0 3.8 3.6 3.9 4.3 4.7 4.4 4.3 4.5 4.7 5.0 5.3
2.9 3.3 4.0 3.8 3.7 4.3 3.8 3.7 4.1 3.1 4.4 4.2 3.7 3.8 3.8 3.8 3.4 3.8 3.5 3.3 3.6 3.4 3.4 3.4 3.9 4.3 4.2 3.5 3.7 3.8 4.0 3.9 3.8 4.2 3.8 4.3 4.5 3.8 4.5 4.7 4.7 5.2 5.3
3.0 3.2 3.1 3.7 3.9 3.5 3.4 3.6 3.7 3.7 3.8 3.7 3.7 3.9 4.4 4.0 4.1 3.5 3.6 3.9 4.0 3.8 4.1 3.9 4.0 4.2 4.3 4.7 4.8 4.8 4.0 3.0 3.8 3.0 4.5 4.5 4.6 4.8 4.9 4.9 4.8 4.6 5.1
2.9 3.2 3.5 3.5 3.5 3.3 3.5 3.3 3.3 3.4 3.5 3.4 3.4 3.6 3.9 4.2 4.2 3.8 4.0 4.1 4.4 4.4 4.4 4.4 4.4 4.6 4.7 4.5 4.8 3.1 3.0 3.0 4.4 3.0 4.5 4.6 4.7 4.8 4.8 4.8 4.9 4.9 5.0